Weather reports worldwide

Advertisment
Bedford, United Kingdom (3560): temperature & dewpoint: 23.04.2017 06:00:00 - 29.04.2017 06:00:00 (BST)Bedford, United Kingdom (3560): temperature -20cm & temperature -100cm: 23.04.2017 06:00:00 - 29.04.2017 06:00:00 (BST)Bedford, United Kingdom (3560): wind speed & gusts: 23.04.2017 06:00:00 - 29.04.2017 06:00:00 (BST)Bedford, United Kingdom (3560): wind direction: 23.04.2017 06:00:00 - 29.04.2017 06:00:00 (BST)Bedford, United Kingdom (3560): reduced air pressure: 23.04.2017 06:00:00 - 29.04.2017 06:00:00 (BST)Bedford, United Kingdom (3560): visibility: 23.04.2017 06:00:00 - 29.04.2017 06:00:00 (BST)Bedford, United Kingdom (3560): precipitation: 23.04.2017 06:00:00 - 29.04.2017 06:00:00 (BST)
Date & Time tt [°C] td [°C] tt -20cm [°C] tt -100cm [°C] ff [km/h] ff [kn] fx [km/h] fx [kn] dd ppp [hPa] vv [km] rr [mm]
29.04.2017 06:00:00 4,4 3,1 - - 8 4 - - WSW 1016,1 14 0,0
29.04.2017 05:00:00 5,3 3,9 - - 9 5 - - WSW 1016,0 14 0,0
29.04.2017 04:00:00 6,9 4,9 - - 11 6 - - WSW 1015,9 23 0,0
29.04.2017 03:00:00 7,3 5,2 - - 9 5 - - SW 1015,9 27 0,0
29.04.2017 02:00:00 7,9 6,0 - - 8 4 - - SSW 1016,0 30 0,0
29.04.2017 01:00:00 7,8 5,3 - - 8 4 - - S 1016,1 35 0,0
29.04.2017 00:00:00 8,4 5,4 - - 8 4 - - S 1016,5 35 0,0
28.04.2017 23:00:00 8,6 5,4 - - 5 3 - - S 1016,6 50 0,0
28.04.2017 22:00:00 9,0 5,6 - - 5 3 - - S 1016,5 40 0,0
28.04.2017 21:00:00 9,5 5,2 - - 4 2 - - S 1016,3 45 0,0
28.04.2017 20:00:00 10,8 3,5 - - 4 2 - - WSW 1016,2 45 0,0
28.04.2017 19:00:00 11,5 3,0 - - 5 3 - - W 1016,1 50 0,0
28.04.2017 18:00:00 11,7 2,1 - - 8 4 - - WNW 1016,3 45 0,0
28.04.2017 17:00:00 11,7 2,2 - - 5 3 - - NNE 1016,3 50 0,0
28.04.2017 16:00:00 11,8 4,0 - - 5 3 - - NE 1016,5 35 0,0
28.04.2017 15:00:00 11,6 3,3 - - 9 5 - - NNE 1016,6 50 0,0
28.04.2017 14:00:00 10,9 2,9 - - 13 7 - - NNW 1017,0 40 0,0
28.04.2017 13:00:00 10,2 2,1 - - 15 8 - - NW 1017,0 50 0,0
28.04.2017 12:00:00 10,4 2,8 - - 8 4 - - NNW 1017,0 50 0,0
28.04.2017 11:00:00 9,5 3,1 - - 13 7 - - NNW 1017,3 50 0,0
28.04.2017 10:00:00 8,5 3,0 9,4 9,9 13 7 - - N 1017,4 35 0,0
28.04.2017 09:00:00 7,9 4,0 - - 16 9 - - N 1017,4 35 0,0
28.04.2017 08:00:00 7,0 4,5 - - 16 9 - - NNW 1017,3 30 0,0
28.04.2017 07:00:00 6,4 4,8 - - 9 5 - - NNW 1017,1 21 0,0
28.04.2017 06:00:00 5,9 5,2 - - 8 4 - - WNW 1016,9 8 0,0
28.04.2017 05:00:00 6,2 5,4 - - 8 4 - - NNW 1016,7 9 0,0
28.04.2017 04:00:00 6,5 5,9 - - 11 6 - - N 1016,7 7 0,0
28.04.2017 03:00:00 6,7 6,2 - - 11 6 - - NNW 1016,6 6 0,0
28.04.2017 02:00:00 6,7 6,0 - - 9 5 - - NW 1016,7 10 0,0
28.04.2017 01:00:00 7,0 6,0 - - 9 5 - - NW 1016,8 15 0,2
28.04.2017 00:00:00 7,1 5,9 - - 13 7 - - NW 1016,7 10 0,2
27.04.2017 23:00:00 7,8 5,4 - - 11 6 - - WNW 1016,7 45 0,0
27.04.2017 22:00:00 8,0 5,2 - - 15 8 - - WNW 1016,7 50 0,0
27.04.2017 21:00:00 8,5 5,1 - - 15 8 - - WNW 1016,4 50 0,0
27.04.2017 20:00:00 8,8 5,3 - - 15 8 - - WNW 1016,1 50 0,0
27.04.2017 19:00:00 9,1 5,2 - - 16 9 - - WNW 1016,0 45 0,0
27.04.2017 18:00:00 9,0 5,7 - - 11 6 - - W 1016,0 50 0,0
27.04.2017 17:00:00 9,7 5,5 - - 21 11 - - W 1016,2 50 0,0
27.04.2017 16:00:00 9,3 5,9 - - 21 11 - - W 1016,8 35 0,0
27.04.2017 15:00:00 9,3 5,1 - - 18 10 - - W 1017,3 35 0,0
27.04.2017 14:00:00 8,0 4,9 - - 21 11 - - W 1017,9 35 0,4
27.04.2017 13:00:00 7,6 4,7 - - 21 11 - - W 1018,3 14 0,2
27.04.2017 12:00:00 7,2 2,2 - - 21 11 - - WNW 1018,8 50 0,0
27.04.2017 11:00:00 7,8 1,5 - - 18 10 - - W 1019,2 45 0,0
27.04.2017 10:00:00 6,7 2,0 9,4 10,0 18 10 - - WNW 1019,5 45 0,0
27.04.2017 09:00:00 4,8 2,0 - - 13 7 - - W 1019,9 35 0,0
27.04.2017 08:00:00 1,7 0,6 - - 11 6 - - W 1020,0 11 0,0
27.04.2017 07:00:00 0,7 -0,2 - - 13 7 - - WSW 1020,0 10 0,0
27.04.2017 06:00:00 0,3 -0,4 - - 15 8 - - W 1020,2 8 0,0
27.04.2017 05:00:00 -0,2 -0,6 - - 15 8 - - W 1020,4 7 0,0
27.04.2017 04:00:00 -0,3 -0,8 - - 13 7 - - W 1020,5 5 0,0
27.04.2017 03:00:00 0,2 -0,5 - - 9 5 - - W 1020,7 10 0,0
27.04.2017 02:00:00 0,5 -0,2 - - 11 6 - - W 1020,9 13 0,0
27.04.2017 01:00:00 0,9 0,0 - - 9 5 - - W 1021,2 24 0,0
27.04.2017 00:00:00 1,2 0,6 - - 11 6 - - W 1021,3 15 0,0
26.04.2017 23:00:00 1,7 1,1 - - 9 5 - - W 1021,3 20 0,0
26.04.2017 22:00:00 2,1 1,4 - - 8 4 - - W 1021,1 18 0,0
26.04.2017 21:00:00 2,3 1,4 - - 2 1 - - NW 1020,7 45 0,0
26.04.2017 20:00:00 3,8 2,3 - - 9 5 - - NE 1020,5 40 1,6
26.04.2017 19:00:00 5,2 1,7 - - 9 5 - - ENE 1019,8 50 0,0
26.04.2017 18:00:00 7,2 1,2 - - 18 10 - - N 1019,3 50 0,0
26.04.2017 17:00:00 6,8 2,4 - - 28 15 - - N 1019,6 45 0,0
26.04.2017 16:00:00 4,2 2,4 - - 18 10 - - NNE 1019,9 50 0,6
26.04.2017 15:00:00 6,7 0,7 - - 24 13 50 27 NNE 1019,2 45 0,0
26.04.2017 14:00:00 7,4 1,5 - - 28 15 48 26 N 1018,7 50 0,0
26.04.2017 13:00:00 7,4 0,1 - - 29 16 - - NNW 1018,6 35 0,0
26.04.2017 12:00:00 7,2 0,0 - - 28 15 - - N 1018,6 18 0,0
26.04.2017 11:00:00 6,3 0,5 - - 28 15 - - N 1018,4 30 0,0
26.04.2017 10:00:00 5,9 1,4 9,9 10,0 29 16 - - N 1018,3 25 0,0
26.04.2017 09:00:00 4,6 1,3 - - 28 15 - - N 1018,1 35 0,0
26.04.2017 08:00:00 3,9 1,6 - - 24 13 - - NNW 1017,6 30 0,0
26.04.2017 07:00:00 3,0 1,3 - - 24 13 - - NNW 1017,4 30 0,0
26.04.2017 06:00:00 2,0 0,7 - - 21 11 - - NNW 1016,8 12 0,0
26.04.2017 05:00:00 2,1 0,8 - - 21 11 - - NNW 1016,4 35 0,0
26.04.2017 04:00:00 2,0 0,7 - - 21 11 - - NNW 1016,4 40 0,0
26.04.2017 03:00:00 1,5 0,4 - - 18 10 - - NW 1016,4 28 0,0
26.04.2017 02:00:00 1,2 0,2 - - 18 10 - - NW 1016,4 17 0,0
26.04.2017 01:00:00 1,5 0,4 - - 18 10 - - NW 1016,4 23 0,0
26.04.2017 00:00:00 1,4 0,3 - - 16 9 - - NW 1016,3 45 0,0
25.04.2017 23:00:00 1,5 0,3 - - 13 7 - - NW 1016,2 45 0,0
25.04.2017 22:00:00 2,2 0,9 - - 13 7 - - NW 1015,9 50 0,0
25.04.2017 21:00:00 2,8 1,4 - - 13 7 - - NW 1015,4 50 0,0
25.04.2017 20:00:00 3,8 0,4 - - 15 8 - - NW 1014,8 50 0,0
25.04.2017 19:00:00 4,8 1,2 - - 21 11 - - NNW 1014,6 50 0,0
25.04.2017 18:00:00 3,9 1,5 - - 21 11 54 29 NE 1014,3 50 0,2
25.04.2017 17:00:00 5,8 0,5 - - 29 16 52 28 N 1014,1 25 0,0
25.04.2017 16:00:00 8,5 -2,7 - - 28 15 50 27 NNW 1013,6 12 0,0
25.04.2017 15:00:00 8,7 0,3 - - 13 7 - - NW 1013,5 45 0,0
25.04.2017 14:00:00 8,2 -3,9 - - 21 11 - - NNW 1013,8 45 0,0
25.04.2017 13:00:00 8,4 -3,5 - - 22 12 - - NW 1014,0 40 0,0
25.04.2017 12:00:00 8,0 -3,3 - - 21 11 - - NNW 1014,1 45 0,0
25.04.2017 11:00:00 7,3 -3,4 - - 24 13 - - NNW 1014,1 28 0,0
25.04.2017 10:00:00 5,6 -1,6 10,4 10,0 22 12 - - NNW 1014,2 40 0,0
25.04.2017 09:00:00 4,3 -1,5 - - 21 11 - - NW 1014,2 40 0,0
25.04.2017 08:00:00 2,5 -0,4 - - 18 10 - - WNW 1014,1 35 0,0
25.04.2017 07:00:00 -0,2 -1,8 - - 11 6 - - W 1013,6 26 0,0
25.04.2017 06:00:00 -0,9 -2,7 - - 11 6 - - WSW 1013,1 40 0,0
25.04.2017 05:00:00 -0,3 -2,8 - - 13 7 - - WNW 1012,5 50 0,0
25.04.2017 04:00:00 1,1 -2,6 - - 16 9 - - W 1012,6 26 0,0
25.04.2017 03:00:00 1,3 -2,5 - - 21 11 - - WNW 1012,6 50 0,0
25.04.2017 02:00:00 1,8 -2,4 - - 18 10 - - WNW 1012,9 50 0,0
25.04.2017 01:00:00 2,6 -2,5 - - 22 12 - - WNW 1013,1 50 0,0
25.04.2017 00:00:00 3,2 -3,5 - - 22 12 - - WNW 1013,0 30 0,0
24.04.2017 23:00:00 4,0 -4,3 - - 22 12 46 25 WNW 1013,2 24 0,0
24.04.2017 22:00:00 5,3 -4,2 - - 29 16 - - WNW 1012,8 40 0,0
24.04.2017 21:00:00 6,2 -3,6 - - 24 13 48 26 WNW 1012,8 50 0,0
24.04.2017 20:00:00 8,6 -2,1 - - 22 12 - - NW 1012,2 50 0,0
24.04.2017 19:00:00 9,9 0,2 - - 28 15 46 25 NW 1012,1 50 0,0
24.04.2017 18:00:00 10,3 4,1 - - 22 12 - - WNW 1012,2 45 0,0
24.04.2017 17:00:00 9,5 4,5 - - 26 14 - - NW 1012,5 50 0,0
24.04.2017 16:00:00 9,7 6,4 - - 18 10 - - W 1012,6 50 0,0
24.04.2017 15:00:00 11,3 7,3 - - 21 11 - - WNW 1013,2 45 0,0
24.04.2017 14:00:00 10,2 6,4 - - 26 14 - - WNW 1013,9 9 0,2
24.04.2017 13:00:00 13,1 6,7 - - 21 11 - - W 1014,4 35 0,0
24.04.2017 12:00:00 12,3 6,9 - - 18 10 - - W 1015,1 35 0,0
24.04.2017 11:00:00 11,6 6,9 - - 16 9 - - W 1015,8 50 0,0
24.04.2017 10:00:00 10,2 7,7 11,2 10,0 15 8 - - WSW 1016,3 50 0,0
24.04.2017 09:00:00 8,4 6,8 - - 11 6 - - WSW 1016,8 30 0,0
24.04.2017 08:00:00 6,8 5,3 - - 11 6 - - WSW 1017,4 25 0,0
24.04.2017 07:00:00 5,8 4,3 - - 13 7 - - WSW 1017,7 35 0,0
24.04.2017 06:00:00 4,7 3,3 - - 11 6 - - WSW 1018,1 30 0,0
24.04.2017 05:00:00 5,3 3,0 - - 9 5 - - WSW 1018,5 50 0,0
24.04.2017 04:00:00 5,1 3,2 - - 11 6 - - WSW 1019,0 50 0,0
24.04.2017 03:00:00 5,7 3,1 - - 11 6 - - WSW 1019,6 50 0,0
24.04.2017 02:00:00 5,7 3,2 - - 11 6 - - WSW 1020,4 50 0,0
24.04.2017 01:00:00 6,7 3,6 - - 11 6 - - WSW 1020,8 50 0,0
24.04.2017 00:00:00 6,9 3,3 - - 5 3 - - W 1021,4 50 0,0
23.04.2017 23:00:00 8,4 3,6 - - 13 7 - - W 1021,8 40 0,0
23.04.2017 22:00:00 9,5 3,1 - - 9 5 - - SW 1021,9 40 0,0
23.04.2017 21:00:00 10,3 3,0 - - 8 4 - - SW 1022,1 50 0,0
23.04.2017 20:00:00 11,7 3,1 - - 8 4 - - WSW 1022,3 50 0,0
23.04.2017 19:00:00 13,2 3,1 - - 13 7 - - WSW 1022,7 45 0,0
23.04.2017 18:00:00 13,1 2,9 - - 15 8 - - W 1023,2 35 0,0
23.04.2017 17:00:00 14,0 2,8 - - 15 8 - - W 1023,6 30 0,0
23.04.2017 16:00:00 13,1 1,5 - - 9 5 - - W 1024,2 50 0,0
23.04.2017 15:00:00 13,2 2,0 - - 9 5 - - W 1025,0 50 0,0
23.04.2017 14:00:00 13,2 3,2 - - 8 4 - - SW 1025,5 30 0,0
23.04.2017 13:00:00 12,1 4,0 - - 11 6 - - W 1026,2 23 0,0
23.04.2017 12:00:00 11,7 5,2 - - 13 7 - - WSW 1026,8 21 0,0
23.04.2017 11:00:00 9,6 5,1 - - 13 7 - - W 1027,3 25 0,0
23.04.2017 10:00:00 9,4 4,4 11,2 9,9 11 6 - - SW 1027,5 25 0,0
23.04.2017 09:00:00 7,6 3,3 - - 5 3 - - SW 1027,9 35 0,0
23.04.2017 08:00:00 5,4 2,1 - - 2 1 - - N 1028,0 50 0,0
23.04.2017 07:00:00 3,7 1,0 - - 4 2 - - ENE 1027,9 50 0,0
23.04.2017 06:00:00 4,1 0,2 - - 9 5 - - SSE 1027,8 50 0,0

tt = temperature
td = dewpoint
tt -20cm = temperature -20cm
tt -100cm = temperature -100cm
ff = wind speed
fx = gusts
dd = wind direction
ppp = reduced air pressure
vv = visibility
rr = precipitation

Next stations